1377302433431,20.0498
1377302493431,20.0280
1377302553431,20.0634
1377302613431,20.0922
1377302673431,20.0339
1377302733431,20.1083
1377302793431,20.0606
1377302853431,20.1224
1377302913431,20.1125
1377302973431,20.0770
1377303033431,20.0304
1377303093431,20.0473
1377303153431,20.1222
1377303213431,20.0685
1377303273431,20.0912
1377303333431,20.1339
1377303393431,20.1475
1377303453431,20.0975
1377303513431,20.1040
1377303573431,20.1348
1377303633431,20.1530
1377303693431,20.0933
1377303753431,20.1633
1377303813431,20.1438
1377303873431,20.0799
1377303933431,20.2039
1377303993431,20.1706
1377304053431,20.1329
1377304113431,20.1554
1377304173431,20.1432
1377304233431,20.1283
1377304293431,20.1310
1377304353431,20.1309
1377304413431,20.1246
1377304473431,20.1649
1377304533431,20.1406
1377304593431,20.1012
1377304653431,20.0982
1377304713431,20.0748
1377304773431,20.1490
1377304833431,20.2044
1377304893431,20.1402
1377304953431,20.1354
1377305013431,20.1416
1377305073431,20.1229
1377305133431,20.1276
1377305193431,20.0888
1377305253431,20.1835
1377305313431,20.1970
1377305373431,20.1465
1377305433431,20.1542
1377305493431,20.1560
1377305553431,20.1365
1377305613431,20.0882
1377305673431,20.1014
1377305733431,20.1475
1377305793431,20.0621
1377305853431,20.1079
1377305913431,20.0862
1377305973431,20.0651
1377306033442,20.0637
1377306093442,20.1062
1377306153442,20.0895
1377306213442,20.1564
1377306273442,20.2032
1377306333442,20.1516
1377306393442,20.1247
1377306453442,20.1030
1377306513442,20.1412
1377306573442,20.1336
1377306633442,20.1398
1377306693442,20.0977
1377306753442,20.2153
1377306813442,20.2063
1377306873442,20.1527
1377306933442,20.1396
1377306993442,20.1665
1377307053442,20.1238
1377307113442,20.2257
1377307173442,20.2359
1377307233442,20.2843
1377307293442,20.2664
1377307353442,20.1959
1377307413442,20.1703
1377307473442,20.2133
1377307533442,20.0642
1377307593442,20.1217
1377307653442,20.1939
1377307713442,20.2554
1377307773442,20.1410
1377307833442,20.1805
1377307893442,20.1867
1377307953442,20.1701
1377308013442,20.1625
1377308073442,20.1980
1377308133442,20.1509
1377308193442,20.1860
1377308253442,20.1789
1377308313442,20.1818
1377308373442,20.1434
1377308433442,20.1827
1377308493442,20.2209
1377308553442,20.1377
1377308613442,20.1799
1377308673442,20.1333
1377308733442,20.0620
1377308793442,20.1080
1377308853442,20.1857
1377308913442,20.1724
1377308973442,20.1665
1377309033442,20.1050
1377309093442,20.0300
1377309153442,20.1501
1377309213442,20.0786
1377309273442,20.0473
1377309333442,20.0422
1377309393442,20.0619
1377309453442,20.0733
1377309513442,20.0840
1377309573442,20.1630
1377309633452,20.0852
1377309693452,20.1043
1377309753452,20.1115
1377309813452,20.1002
1377309873452,20.1033
1377309933452,20.1972
1377309993452,20.1227
1377310053452,20.1216
1377310113452,20.1025
1377310173452,20.0285
1377310233452,20.0920
1377310293452,20.0977
1377310353452,20.0474
1377310413452,20.1129
1377310473452,20.0259
1377310533452,20.0868
1377310593452,20.0556
1377310653452,20.0668
1377310713452,20.1199
1377310773452,20.0536
1377310833452,20.0860
1377310893452,20.1276
1377310953452,20.1056
1377311013452,20.0943
1377311073452,20.1610
1377311133452,20.1736
1377311193452,20.1783
1377311253452,20.1663
1377311313452,20.1614
1377311373452,20.1816
1377311433452,20.2059
1377311493452,20.1159
1377311553452,20.2043
1377311613452,20.1258
1377311673452,20.1096
1377311733452,20.1343
1377311793452,20.1674
1377311853452,20.2388
1377311913452,20.2099
1377311973452,20.1079
1377312033452,20.1709
1377312093452,20.1997
1377312153452,20.2113
1377312213452,20.2532
1377312273452,20.2019
1377312333452,20.2004
1377312393452,20.0903
1377312453452,20.1415
1377312513452,20.0840
1377312573452,20.1616
1377312633452,20.1406
1377312693452,20.0944
1377312753452,20.1226
1377312813452,20.0905
1377312873452,20.0798
1377312933452,20.0687
1377312993452,20.0757
1377313053452,20.1255
1377313113452,20.1234
1377313173452,20.0739
1377313233462,20.0941
1377313293462,20.1068
1377313353462,20.1798
1377313413462,20.1033
1377313473462,20.3083
1377313533462,20.1394
1377313593462,20.1565
1377313653462,20.0773
1377313713462,20.0685
1377313773462,20.0364
1377313833462,20.1057
1377313893462,20.0668
1377313953462,20.0612
1377314013462,20.0643
1377314073462,20.0557
1377314133462,20.0275
1377314193462,20.1207
1377314253462,20.0107
1377314313462,20.0468
1377314373462,20.0902
1377314433462,20.0540
1377314493462,20.0316
1377314553462,20.1016
1377314613462,20.0757
1377314673462,20.0518
1377314733462,20.0920
1377314793462,20.0553
1377314853462,20.0813
1377314913462,20.1060
1377314973462,20.0242
1377315033462,20.1172
1377315093462,20.0978
1377315153462,20.1381
1377315213462,20.0187
1377315273462,20.0641
1377315333462,20.0678
1377315393462,20.0884
1377315453462,20.0778
1377315513462,20.0595
1377315573462,20.0879
1377315633462,20.1021
1377315693462,20.0656
1377315753462,20.0375
1377315813462,20.0242
1377315873462,20.0791
1377315933462,20.0605
1377315993462,20.0642
1377316053462,20.0439
1377316113462,20.0927
1377316173462,20.0468
1377316233462,20.0474
1377316293462,20.0691
1377316353462,20.0503
1377316413462,20.0885
1377316473462,20.0413
1377316533462,20.1044
1377316593462,20.0688
1377316653462,20.0948
1377316713462,20.0949
1377316773462,20.0458
1377316833472,20.0529
1377316893472,20.0916
1377316953472,20.0137
1377317013472,20.0790
1377317073472,20.1029
1377317133472,20.0899
1377317193472,20.1453
1377317253472,20.0682
1377317313472,20.1469
1377317373472,20.0894
1377317433472,20.1106
1377317493472,20.1155
1377317553472,20.0822
1377317613472,20.0372
1377317673472,20.1351
1377317733472,20.0639
1377317793472,20.1106
1377317853472,20.1375
1377317913472,20.0668
1377317973472,20.1107
1377318033472,20.0839
1377318093472,20.1464
1377318153472,20.0827
1377318213472,19.9928
1377318273472,20.0983
1377318333472,20.0188
1377318393472,20.0697
1377318453472,20.0763
1377318513472,20.0399
1377318573472,20.1017
1377318633472,20.0854
1377318693472,20.1006
1377318753472,20.0429
1377318813472,20.1516
1377318873472,20.0430
1377318933472,20.0733
1377318993472,20.1112
1377319053472,20.0634
1377319113472,20.0873
1377319173472,20.0755
1377319233472,20.1309
1377319293472,20.0856
1377319353472,20.1777
1377319413472,20.1369
1377319473472,20.0448
1377319533472,20.1486
1377319593472,20.1387
1377319653472,20.0988
1377319713472,20.1269
1377319773472,20.0650
1377319833472,20.0552
1377319893472,20.1582
1377319953472,20.1073
1377320013472,20.0542
1377320073472,20.1342
1377320133472,20.0726
1377320193472,20.0960
1377320253472,20.0921
1377320313472,20.0772
1377320373472,20.0547
1377320433482,20.0984
1377320493482,20.1466
1377320553482,20.1194
1377320613482,20.0990
1377320673482,20.1154
1377320733482,20.0812
1377320793482,20.1426
1377320853482,20.0841
1377320913482,20.1254
1377320973482,20.0526
1377321033482,20.1372
1377321093482,20.0842
1377321153482,20.1055
1377321213482,20.0446
1377321273482,20.0629
1377321333482,20.1233
1377321393482,20.1278
1377321453482,20.1736
1377321513482,20.1401
1377321573482,20.1545
1377321633482,20.1531
1377321693482,20.0939
1377321753482,20.0771
1377321813482,20.1191
1377321873482,20.1258
1377321933482,20.0993
1377321993482,20.0996
1377322053482,20.1030
1377322113482,20.1464
1377322173482,20.1435
1377322233482,20.1043
1377322293482,20.0992
1377322353482,20.0791
1377322413482,20.0943
1377322473482,20.1026
1377322533482,20.0753
1377322593482,20.0616
1377322653482,20.1060
1377322713482,20.0997
1377322773482,20.0982
1377322833482,20.1051
1377322893482,20.1826
1377322953482,20.1268
1377323013482,20.1302
1377323073482,20.1078
1377323133482,20.1547
1377323193482,20.0796
1377323253482,20.1471
1377323313482,20.0622
1377323373482,20.1031
1377323433482,20.0974
1377323493482,20.1546
1377323553482,20.1189
1377323613482,20.0966
1377323673482,20.2575
1377323733482,20.0942
1377323793482,20.1279
1377323853482,20.1135
1377323913482,20.0993
1377323973482,20.0539
1377324033492,20.0489
1377324093492,20.0843
1377324153492,20.0567
1377324213492,20.0971
1377324273492,20.0568
1377324333492,20.0575
1377324393492,20.0557
1377324453492,20.0223
1377324513492,19.9339
1377324573492,20.1505
1377324633492,20.0936
1377324693492,20.0327
1377324753492,20.0688
1377324813492,20.0597
1377324873492,20.0419
1377324933492,20.0199
1377324993492,20.0400
1377325053492,20.0690
1377325113492,20.0597
1377325173492,20.0149
1377325233492,20.0492
1377325293492,20.0332
1377325353492,20.0764
1377325413492,20.0114
1377325473492,20.0744
1377325533492,20.0522
1377325593492,20.0363
1377325653492,20.0399
1377325713492,20.0567
1377325773492,20.0777
1377325833492,20.0179
1377325893492,20.0981
1377325953492,20.0517
1377326013492,20.0401
1377326073492,20.0170
1377326133492,20.0704
1377326193492,20.0698
1377326253492,20.1066
1377326313492,20.0821
1377326373492,19.9473
1377326433492,20.0308
1377326493492,20.0026
1377326553492,20.0458
1377326613492,19.9836
1377326673492,20.0709
1377326733492,20.0522
1377326793492,20.0401
1377326853492,19.9717
1377326913492,20.0846
1377326973492,19.9699
1377327033492,19.9445
1377327093492,19.9855
1377327153492,20.0789
1377327213492,19.9935
1377327273492,20.0553
1377327333492,20.0469
1377327393492,20.0453
1377327453492,20.0219
1377327513492,20.0363
1377327573492,20.0505
1377327633502,20.0248
1377327693502,20.0106
1377327753502,20.0461
1377327813502,19.9920
1377327873502,20.1150
1377327933502,20.0523
1377327993502,20.0840
1377328053502,20.0577
1377328113502,20.0513
1377328173502,20.0381
1377328233502,19.9907
1377328293502,20.0225
1377328353502,20.0126
1377328413502,20.0484
1377328473502,19.9814
1377328533502,20.0691
1377328593502,19.9809
1377328653502,20.0224
1377328713502,20.0073
1377328773502,20.0057
1377328833502,19.9613
1377328893502,20.0015
1377328953502,19.9676
1377329013502,19.9880
1377329073502,20.0435
1377329133502,20.0799
1377329193502,20.0599
1377329253502,20.0907
1377329313502,20.0253
1377329373502,20.0181
1377329433502,20.0561
1377329493502,20.0426
1377329553502,20.0785
1377329613502,20.0621
1377329673502,19.9888
1377329733502,20.0721
1377329793502,20.0441
1377329853502,19.9732
1377329913502,20.0302
1377329973502,20.0059
1377330033502,20.0518
1377330093502,20.0292
1377330153502,19.9981
1377330213502,20.0558
1377330273502,20.0500
1377330333502,20.0354
1377330393502,20.0234
1377330453502,19.9784
1377330513502,20.0320
1377330573502,20.0298
1377330633502,20.0016
1377330693502,19.9640
1377330753502,19.9887
1377330813502,20.0655
1377330873502,20.0484
1377330933502,20.0386
1377330993502,20.0512
1377331053502,20.0003
1377331113502,20.0306
1377331173502,20.0415
1377331233513,20.0250
1377331293513,19.9786
1377331353513,20.0417
1377331413513,20.0116
1377331473513,20.0771
1377331533513,20.0300
1377331593513,20.0203
1377331653513,19.9633
1377331713513,19.9885
1377331773513,20.0199
1377331833513,19.9354
1377331893513,19.9774
1377331953513,20.0740
1377332013513,20.0183
1377332073513,19.9996
1377332133513,20.0019
1377332193513,20.0250
1377332253513,20.0758
1377332313513,19.9938
1377332373513,19.9926
1377332433513,20.0057
1377332493513,20.0185
1377332553513,20.0041
1377332613513,20.0574
1377332673513,20.0566
1377332733513,20.0425
1377332793513,20.0192
1377332853513,20.0428
1377332913513,20.0284
1377332973513,20.0227
1377333033513,20.0285
1377333093513,20.0654
1377333153513,20.0745
1377333213513,20.0745
1377333273513,20.0129
1377333333513,20.0048
1377333393513,20.0693
1377333453513,20.0399
1377333513513,20.0179
1377333573513,20.0471
1377333633513,20.0552
1377333693513,20.0782
1377333753513,20.0664
1377333813513,20.0544
1377333873513,20.0549
1377333933513,20.1014
1377333993513,20.0435
1377334053513,20.0458
1377334113513,20.1014
1377334173513,20.0526
1377334233513,20.0239
1377334293513,20.0649
1377334353513,20.1400
1377334413513,20.1224
1377334473513,20.0487
1377334533513,20.0802
1377334593513,20.0974
1377334653513,20.1707
1377334713513,20.1694
1377334773513,20.2171
1377334833523,20.1478
1377334893523,20.0727
1377334953523,20.1255
1377335013523,20.0983
1377335073523,20.1316
1377335133523,20.1555
1377335193523,20.0716
1377335253523,20.1602
1377335313523,20.2115
1377335373523,20.1445
1377335433523,20.1595
1377335493523,20.0933
1377335553523,20.1060
1377335613523,20.1157
1377335673523,20.1285
1377335733523,20.1535
1377335793523,20.1209
1377335853523,20.0922
1377335913523,20.0349
1377335973523,20.0889
1377336033523,20.0610
1377336093523,20.0526
1377336153523,20.0461
1377336213523,20.0633
1377336273523,20.0217
1377336333523,19.9632
1377336393523,20.0057
1377336453523,19.9839
1377336513523,20.0146
1377336573523,20.0272
1377336633523,19.9790
1377336693523,19.9573
1377336753523,19.9539
1377336813523,19.9423
1377336873523,20.0065
1377336933523,19.9877
1377336993523,19.8978
1377337053523,19.8465
1377337113523,19.9046
1377337173523,19.8973
1377337233523,19.9151
1377337293523,19.9822
1377337353523,19.9375
1377337413523,19.9354
1377337473523,19.9269
1377337533523,19.9662
1377337593523,19.9096
1377337653523,19.9569
1377337713523,19.8822
1377337773523,19.9224
1377337833523,19.8812
1377337893523,19.9480
1377337953523,19.8691
1377338013523,19.9333
1377338073523,19.8827
1377338133523,19.8717
1377338193523,19.8338
1377338253523,19.8958
1377338313523,19.9856
1377338373523,19.9063
1377338433533,19.8338
1377338493534,19.8392
1377338553534,19.8806
1377338613534,19.8641
1377338673534,19.9119
1377338733534,19.9314
1377338793534,19.8778
1377338853533,19.9058
1377338913533,19.9536
1377338973533,19.9438
1377339033533,19.9138
1377339093533,19.9080
1377339153533,19.8195
1377339213533,19.8915
1377339273533,19.8903
1377339333533,19.8840
1377339393533,19.8475
1377339453533,19.9061
1377339513533,19.8712
1377339573533,19.8365
1377339633533,19.8557
1377339693533,19.8894
1377339753533,19.8017
1377339813533,19.8732
1377339873534,19.8153
1377339933534,19.8270
1377339993534,19.8865
1377340053534,19.8436
1377340113534,19.9345
1377340173534,19.8791
1377340233533,20.0000
1377340293533,19.8832
1377340353533,19.8698
1377340413533,19.9330
1377340473533,19.8808
1377340533533,19.8838
1377340593533,19.9314
1377340653533,19.9128
1377340713533,19.9665
1377340773533,19.8851
1377340833533,19.8710
1377340893533,19.8880
1377340953533,19.9043
1377341013533,19.9098
1377341073533,19.9545
1377341133533,19.8929
1377341193534,19.9313
1377341253534,19.8908
1377341313534,19.8557
1377341373534,19.8423
1377341433534,19.8992
1377341493534,19.9353
1377341553533,19.8623
1377341613533,19.9247
1377341673533,19.9354
1377341733533,19.9297
1377341793533,19.7727
1377341853533,19.8795
1377341913533,19.9093
1377341973533,19.8718
1377342033544,19.8027
1377342093544,19.8119
1377342153544,19.8650
1377342213544,19.8643
1377342273544,19.8241
1377342333544,19.8612
1377342393544,19.8791
1377342453544,19.8738
1377342513544,19.8725
1377342573544,19.8622
1377342633544,19.8034
1377342693544,19.5639
1377343233544,19.7972
1377343293544,19.6824
1377343353544,19.8051
1377343413544,19.7987
1377343473544,19.8962
1377343533544,19.9301
1377343593544,19.8835
1377343653544,19.8776
1377343713544,19.7880
1377343773544,19.9477
1377343833544,19.8386
1377343893544,19.8601
1377343953544,19.7852
1377344013544,19.8139
1377344073544,19.8564
1377344133544,19.8195
1377344193544,19.7947
1377344253544,19.8018
1377344313544,19.8517
1377344373544,19.7718
1377344433544,19.7882
1377344493544,19.7142
1377344553544,19.8221
1377344613544,19.7966
1377344673544,19.8076
1377344733544,19.7820
1377344793544,19.8198
1377344853544,19.7913
1377344913544,19.7273
1377344973544,19.7465
1377345033544,19.8493
1377345093544,19.7721
1377345153544,19.8122
1377345213544,19.7661
1377345273544,19.8289
1377345333544,19.7895
1377345393544,19.7942
1377345453544,19.7728
1377345513544,19.7975
1377345573544,19.8053
1377345633555,19.7688
1377345693555,19.7939
1377345753555,19.7600
1377345813555,19.7851
1377345873555,19.8362
1377345933555,19.7708
1377345993555,19.7563
1377346053555,19.7657
1377346113555,19.7785
1377346173555,19.8206
1377346233555,19.7474
1377346293555,19.7916
1377346353555,19.7821
1377346413555,19.8265
1377346473555,19.8046
1377346533555,19.7850
1377346593555,19.7841
1377346653555,19.7784
1377346713555,19.7707
1377346773555,19.7424
1377346833555,19.7066
1377346893555,19.7661
1377346953555,19.7890
1377347013555,19.7663
1377347073555,19.7300
1377347133555,19.7001
1377347193555,19.7495
1377347253555,19.7852
1377347313555,19.7870
1377347373555,19.7827
1377347433555,19.7538
1377347493555,19.7161
1377347553555,19.7461
1377347613555,19.8151
1377347673555,19.7795
1377347733555,19.7991
1377347793555,19.6965
1377347853555,19.7928
1377347913555,19.7937
1377347973555,19.7929
1377348033555,19.7481
1377348093555,19.7602
1377348153555,19.7546
1377348213555,19.7571
1377348273555,19.7298
1377348333555,19.7994
1377348393555,19.7367
1377348453555,19.7253
1377348513555,19.7738
1377348573555,19.7723
1377348633555,19.8364
1377348693555,19.7737
1377348753555,19.7904
1377348813555,19.8005
1377348873555,19.8094
1377348933555,19.8260
1377348993555,19.7321
1377349053555,19.7816
1377349113555,19.7590
1377349173555,19.7946
1377349233565,19.7859
1377349293565,19.7818
1377349353565,19.8014
1377349413565,19.7680
1377349473565,19.8192
1377349533565,19.7617
1377349593565,19.8025
1377349653565,19.7611
1377349713565,19.7711
1377349773565,19.8350
1377349833565,19.8226
1377349893565,19.8460
1377349953565,19.7793
1377350013566,19.7857
1377350073565,19.7941
1377350133565,19.8170
1377350193565,19.7702
1377350253565,19.7634
1377350313565,19.8029
1377350373565,19.7453
1377350433565,19.7806
1377350493565,19.7578
1377350553565,19.7882
1377350613565,19.7718
1377350673565,19.7562
1377350733565,19.8015
1377350793565,19.8166
1377350853565,19.7884
1377350913565,19.7569
1377350973565,19.7681
1377351033565,19.7586
1377351093565,19.8153
1377351153565,19.8270
1377351213565,19.7435
1377351273565,19.7993
1377351333566,19.7903
1377351393566,19.8314
1377351453565,19.8014
1377351513565,19.7643
1377351573565,19.7640
1377351633565,19.7522
1377351693565,19.8070
1377351753565,19.8136
1377351813565,19.8361
1377351873565,19.8358
1377351933565,19.8285
1377351993565,19.7691
1377352053565,19.7187
1377352113565,19.7589
1377352173565,19.8090
1377352233565,19.8453
1377352293565,19.7725
1377352353565,19.8572
1377352413565,19.8011
1377352473565,19.8325
1377352533565,19.8139
1377352593565,19.8264
1377352653565,19.8646
1377352713566,19.7912
1377352773565,19.7859
1377352833577,19.7751
1377352893577,19.8509
1377352953577,19.7669
1377353013577,19.7842
1377353073577,19.8453
1377353133577,19.7075
1377353193576,19.8016
1377353253576,19.8137
1377353313576,19.7717
1377353373576,19.7506
1377353433576,19.8338
1377353493576,19.8034
1377353553576,19.8499
1377353613577,19.7753
1377353673577,19.7350
1377353733577,19.7296
1377353793577,19.8282
1377353853576,19.8168
1377353913576,19.8383
1377353973577,19.8094
1377354033577,19.8212
1377354093577,19.8731
1377354153577,19.8054
1377354213577,19.8025
1377354273577,19.7631
1377354333577,19.7255
1377354393577,19.8526
1377354453577,19.7902
1377354513576,19.8367
1377354573576,19.8464
1377354633576,19.7737
1377354693576,19.8210
1377354753576,19.7501
1377354813576,19.7982
1377354873576,19.7697
1377354933576,19.7401
1377354993577,19.7134
1377355053577,19.7653
1377355113577,19.7802
1377355173577,19.7691
1377355233576,19.7210
1377355293577,19.7816
1377355353577,19.6837
1377355413577,19.7663
1377355473577,19.7100
1377355533577,19.6948
1377355593577,19.7579
1377355653577,19.7443
1377355713577,19.7061
1377355773577,19.7343
1377355833577,19.7258
1377355893576,19.7870
1377355953576,19.7123
1377356013576,19.7551
1377356073576,19.7417
1377356133576,19.7496
1377356193576,19.7395
1377356253576,19.7414
1377356313577,19.7512
1377356373577,19.7279
1377356433588,19.6797
1377356493588,19.7288
1377356553588,19.7576
1377356613588,19.7165
1377356673588,19.6646
1377356733588,19.6892
1377356793588,19.7362
1377356853588,19.7615
1377356913588,19.7247
1377356973588,19.7376
1377357033588,19.6672
1377357093588,19.6939
1377357153588,19.6806
1377357213588,19.7345
1377357273588,19.7271
1377357333588,19.7671
1377357393588,19.7513
1377357453588,19.7881
1377357513588,19.7160
1377357573588,19.7147
1377357633588,19.7216
1377357693588,19.6683
1377357753588,19.7450
1377357813588,19.7338
1377357873588,19.7102
1377357933588,19.6879
1377357993588,19.7764
1377358053588,19.7957
1377358113588,19.6963
1377358173588,19.7684
1377358233588,19.7093
1377358293588,19.7778
1377358353588,19.7257
1377358413588,19.6712
1377358473588,19.6902
1377358533588,19.7443
1377358593588,19.7301
1377358653588,19.7096
1377358713588,19.7506
1377358773588,19.7582
1377358833588,19.6762
1377358893588,19.6960
1377358953588,19.8241
1377359013588,19.7829
1377359073588,19.8125
1377359133588,19.7389
1377359193588,19.8025
1377359253588,19.7466
1377359313588,19.7614
1377359373588,19.7749
1377359433588,19.7583
1377359493588,19.7348
1377359553588,19.7237
1377359613588,19.7576
1377359673588,19.7695
1377359733588,19.7329
1377359793588,19.7616
1377359853588,19.7774
1377359913588,19.7254
1377359973588,19.7136
1377360033599,19.7030
1377360093599,19.7913
1377360153599,19.7551
1377360213599,19.7614
1377360273599,19.7656
1377360333599,19.7586
1377360393599,19.8057
1377360453599,19.7613
1377360513599,19.7668
1377360573599,19.7254
1377360633599,19.7211
1377360693599,19.7669
1377360753599,19.7433
1377360813599,19.7495
1377360873599,19.7211
1377360933599,19.8245
1377360993599,19.7352
1377361053599,19.7763
1377361113599,19.7123
1377361173599,19.7209
1377361233599,19.7473
1377361293599,19.7678
1377361353599,19.6817
1377361413599,19.7395
1377361473599,19.7380
1377361533599,19.7580
1377361593599,19.6748
1377361653599,19.6951
1377361713599,19.6868
1377361773599,19.6810
1377361833599,19.7687
1377361893599,19.7465
1377361953599,19.6904
1377362013599,19.7410
1377362073599,19.6688
1377362133599,19.6480
1377362193599,19.7592
1377362253599,19.6795
1377362313599,19.7229
1377362373599,19.7356
1377362433599,19.7048
1377362493599,19.7080
1377362553599,19.6500
1377362613599,19.7118
1377362673599,19.7857
1377362733599,19.7919
1377362793599,19.7443
1377362853599,19.8050
1377362913599,19.7379
1377362973599,19.7513
1377363033599,19.6826
1377363093599,19.8057
1377363153599,19.8076
1377363213599,19.7736
1377363273599,19.8500
1377363333599,19.8334
1377363393599,19.8050
1377363453599,19.7523
1377363513599,19.7655
1377363573599,19.7162
1377363633611,19.8188
1377363693611,19.8048
1377363753611,19.7614
1377363813611,19.7719
1377363873611,19.7297
1377363933611,19.7737
1377363993611,19.7883
1377364053611,19.7741
1377364113611,19.7413
1377364173611,19.7628
1377364233611,19.7443
1377364293611,19.8154
1377364353611,19.7022
1377364413611,19.7601
1377364473611,19.7949
1377364533611,19.7953
1377364593611,19.7449
1377364653611,19.8411
1377364713611,19.8319
1377364773611,19.7802
1377364833611,19.8239
1377364893611,19.7814
1377364953611,19.7677
1377365013611,19.7701
1377365073611,19.7637
1377365133611,19.7926
1377365193611,19.8097
1377365253611,19.7966
1377365313611,19.7744
1377365373611,19.7197
1377365433611,19.7078
1377365493611,19.7019
1377365553611,19.7629
1377365613611,19.8010
1377365673611,19.7478
1377365733611,19.8032
1377365793611,19.8905
1377365853611,19.7781
1377365913611,19.7623
1377365973611,19.8084
1377366033611,19.8099
1377366093611,19.8001
1377366153611,19.8402
1377366213611,19.8648
1377366273611,19.8424
1377366333611,19.7928
1377366393611,19.8439
1377366453611,19.8672
1377366513611,19.7206
1377366573611,19.8094
1377366633611,19.7993
1377366693611,19.8146
1377366753611,19.8317
1377366813611,19.8490
1377366873611,19.7860
1377366933611,19.7869
1377366993611,19.8759
1377367053611,19.8366
1377367113611,19.8054
1377367173611,19.8137
1377367233623,19.7966
1377367293623,19.7485
1377367353623,19.8116
1377367413623,19.8545
1377367473623,19.7726
1377367533623,19.7564
1377367593623,19.7129
1377367653623,19.7682
1377367713623,19.8799
1377367773623,19.7701
1377367833623,19.7776
1377367893623,19.7930
1377367953623,19.8021
1377368013623,19.8231
1377368073623,19.7925
1377368133623,19.7843
1377368193623,19.7733
1377368253623,19.7766